Weather Roundup
Issued by NWS Corpus Christi, TX

Home | Current Version | Previous Version | Text Only | Print | Product List | Glossary On
Versions: 1 2 3 4 5 6 7 8 9 10 11 12 13 14 15 16 17 18 19 20 21 22 23 24 25 26 27 28 29 30 31 32 33 34 35 36 37 38 39 40 41 42 43 44 45 46 47 48 49 50
000
ASUS44 KCRP 211910
HRRCRP

SOUTH TEXAS REGIONAL WEATHER ROUNDUP
NATIONAL WEATHER SERVICE CORPUS CHRISTI TX
200 PM CDT THU AUG 21 2014


TXZ229>244-212000-
...CORPUS CHRISTI AREA OBSERVATIONS...

CITY           SKY/WX    TMP DP  RH WIND       PRES   REMARKS
CORPUS CHRISTI PTSUNNY   94  75  54 S25G32    30.03F HX 105
NAS CORPUS CHR MOSUNNY   92  78  63 SE24G35   30.04F HX 107
ROCKPORT       LGT RAIN  92  76  59 S15G25    30.05F HX 104
KINGSVILLE NAS MOSUNNY   97  78  54 SE24G31   30.01F HX 114
ALICE          MOSUNNY  100  69  36 S23G33    29.99F HX 106
FALFURRIAS     MOSUNNY  104  84  53 S16G28    30.00S HX 135
$$

...VICTORIA AREA OBSERVATIONS...

CITY           SKY/WX    TMP DP  RH WIND       PRES   REMARKS
VICTORIA       SUNNY     99  69  37 S20G31    30.04F HX 105
BEEVILLE       FAIR      99  66  34 S17G24    30.01F HX 103
PLEASANTON     SUNNY     99  62  28 S17G26    30.00F HX 100
SAN ANTONIO    MOSUNNY   98  63  31 SE18G28   30.02F HX 100
$$

...LAREDO AREA OBSERVATIONS...

CITY           SKY/WX    TMP DP  RH WIND       PRES   REMARKS
LAREDO         SUNNY    102  61  26 S23G33    29.99F HX 103
COTULLA        SUNNY    101  58  24 S13G24    29.97F HX 100
DEL RIO        MOSUNNY   92  71  50 SE13G21   29.96F HX  98
MCALLEN        MOSUNNY   98  71  41 SE18G26   30.00F HX 106
HEBBRONVILLE   SUNNY     98  61  29 SE20G29   30.01F HX  98
$$

...OTHER TEXAS OBSERVATIONS...

CITY           SKY/WX    TMP DP  RH WIND       PRES   REMARKS
BROWNSVILLE    MOSUNNY   95  75  52 SE17G25   30.03F HX 107
HOUSTON        MOSUNNY   96  71  44 VRB6G22   30.06F HX 103
COL. STATION   SUNNY     96  67  38 S13G22    30.04F HX 100
AUSTIN         MOSUNNY   98  64  32 S22G29    30.01F HX 100
WACO           SUNNY     98  63  31 S16G25    30.01F HX 100
FORT WORTH     MOSUNNY   95  70  44 SW18      30.00F HX 101
WICHITA FALLS  MOSUNNY   99  69  37 S22       29.93F HX 105
LUBBOCK        MOSUNNY   93  64  38 S15G24    30.01F HX  94
EL PASO        MOSUNNY   89  50  26 SW10G18   30.07F
$$

...MARINE OBSERVATIONS...

STATION/POSITION TIME  SKY/WX   TEMP    WIND        PRES    VSBY  WAVE   SWELL
                                AIR SEA DIR/SP/G                  HT/PER HT/PER
                 (UTC)          (F)     (DEG/KT/KT) (MB)    (MI)  (FT/S) (FT/S)
PORT ARANSAS     1900            83 85  140/ 13/ 14 1018.4F
BUOY 90 E PORT A 1900            85 85  170/ 12/ 14 1019.2R         4/ 6   3/ 6
BUOY 45 SE BAFFI 1900            85 85  160/ 14/ 17 1017.2F         4/ 7   2/ 7
BUOY 200 E PT IS 1900            86 87  140/ 12/ 14 1018.7F         3/ 6   2/ 6
BUOY 15 E GALVES NOT AVBL
$$


USA.gov is the U.S. government's official web portal to all federal, state and local government web resources and services.